EW7070 Weather Reports


time (UTC)temp
F
wind
direction
speed
knots
gust
knots
rain 1hr
in
rain 24hr
in
rain mn
in
humidity
%
barometer
mb
20260905182647 68 287 1.7 11.3 0.00 0.00 0.00 53 1016.0
20260905182118 68 47 1.7 7.8 0.00 0.00 0.00 58 1016.1
20260905181835 67 340 2.6 7.8 0.00 0.00 0.00 57 1016.1
20260905181105 67 321 3.5 7.8 0.00 0.00 0.00 60 1016.1
20260905180604 67 320 3.5 7.8 0.00 0.00 0.00 56 1016.1
20260905180038 68 271 2.6 7.8 0.00 0.00 0.00 55 1016.1
20260905175524 68 276 2.6 7.8 0.00 0.00 0.00 56 1016.1
20260905175025 68 280 1.7 8.7 0.00 0.00 0.00 60 1016.1
20260905174454 68 283 1.7 8.7 0.00 0.00 0.00 58 1016.1
20260905173930 67 177 2.6 7.8 0.00 0.00 0.00 58 1016.2
20260905173402 67 297 2.6 7.8 0.00 0.00 0.00 58 1016.1
20260905172835 67 310 2.6 6.1 0.00 0.00 0.00 61 1016.3
20260905172310 67 318 1.7 6.1 0.00 0.00 0.00 59 1016.3
20260905171758 67 293 2.6 5.2 0.00 0.00 0.00 64 1016.3
20260905171254 67 164 2.6 7.0 0.00 0.00 0.00 58 1016.3
20260905170755 67 237 2.6 7.0 0.00 0.00 0.00 61 1016.4
20260905170255 67 115 1.7 7.0 0.00 0.00 0.00 59 1016.5
20260905165753 66 251 1.7 7.0 0.00 0.00 0.00 62 1016.7
20260905165229 66 213 1.7 6.1 0.00 0.00 0.00 61 1016.7
20260905164729 65 311 2.6 7.8 0.00 0.00 0.00 63 1016.7
20260905164445 65 304 3.5 7.8 0.00 0.00 0.00 63 1017.0
20260905163712 65 235 3.5 7.0 0.00 0.00 0.00 63 1016.9
20260905163211 65 251 2.6 7.0 0.00 0.00 0.00 63 1016.8
20260905162912 65 322 2.6 8.7 0.00 0.00 0.00 63 1016.9
20260905162115 66 253 2.6 8.7 0.00 0.00 0.00 65 1016.7
20260905161553 65 272 2.6 7.0 0.00 0.00 0.00 64 1016.8
20260905161035 65 269 2.6 7.0 0.00 0.00 0.00 67 1016.9
20260905160530 65 140 1.7 7.0 0.00 0.00 0.00 67 1016.9
20260905160028 65 113 1.7 5.2 0.00 0.00 0.00 69 1017.0
20260905155731 64 280 3.5 7.8 0.00 0.00 0.00 67 1017.0
20260905155228 64 285 3.5 8.7 0.00 0.00 0.00 68 1017.1
20260905154429 64 255 2.6 8.7 0.00 0.00 0.00 68 1017.0
20260905153926 64 138 2.6 7.0 0.00 0.00 0.00 68 1017.1
20260905153415 64 258 2.6 7.0 0.00 0.00 0.00 66 1017.3
20260905152850 64 279 4.3 12.2 0.00 0.00 0.00 71 1017.4
20260905152323 64 264 3.5 12.2 0.00 0.00 0.00 71 1017.5
20260905151809 64 239 3.5 9.6 0.00 0.00 0.00 73 1017.6
20260905151305 64 122 2.6 9.6 0.00 0.00 0.00 70 1017.5
20260905150803 64 193 2.6 5.2 0.00 0.00 0.00 73 1017.7
20260905150248 64 145 2.6 5.2 0.00 0.00 0.00 71 1017.8
20260905145750 64 281 1.7 5.2 0.00 0.00 0.00 71 1017.8
20260905145225 64 232 2.6 7.0 0.00 0.00 0.00 71 1017.8
20260905144713 63 332 3.5 7.0 0.00 0.00 0.00 74 1017.9
20260905144211 63 293 2.6 7.0 0.00 0.00 0.00 75 1018.0
20260905143658 63 269 2.6 7.0 0.00 0.00 0.00 74 1018.0
20260905143157 63 43 1.7 2.6 0.00 0.00 0.00 79 1018.0
20260905142632 62 47 1.7 4.3 0.00 0.00 0.00 77 1018.0
20260905142133 62 232 1.7 4.3 0.00 0.00 0.00 76 1018.0
20260905141632 62 203 1.7 4.3 0.00 0.00 0.00 77 1018.2
20260905141402 62 296 1.7 5.2 0.00 0.00 0.00 77 1018.2
20260905140630 62 280 1.7 5.2 0.00 0.00 0.00 75 1018.2
20260905140128 62 280 1.7 4.3 0.00 0.00 0.00 77 1018.3
20260905135601 63 227 1.7 4.3 0.00 0.00 0.00 77 1018.4
20260905135056 63 127 1.7 3.5 0.00 0.00 0.00 78 1018.4
20260905134527 62 107 0.9 3.5 0.00 0.00 0.00 81 1018.4
20260905134025 62 150 0.9 4.3 0.00 0.00 0.00 80 1018.4
20260905133518 61 102 0.9 4.3 0.00 0.00 0.00 82 1018.5
20260905132950 60 6 0.0 1.7 0.00 0.00 0.00 84 1018.5
20260905132422 60 6 0.9 1.7 0.00 0.00 0.00 85 1018.5
20260905131922 60 310 0.9 6.1 0.00 0.00 0.00 86 1018.5
20260905131422 59 221 0.9 6.1 0.00 0.00 0.00 87 1018.5
20260905130923 59 249 0.0 3.5 0.00 0.00 0.00 89 1018.4
20260905130420 58 210 0.0 2.6 0.00 0.00 0.00 91 1018.6
20260905125920 58 267 0.9 3.5 0.00 0.00 0.00 92 1018.5
20260905125408 58 114 0.9 3.5 0.00 0.00 0.00 94 1018.4
20260905125138 57 212 0.9 3.5 0.00 0.00 0.00 94 1018.5
20260905124408 56 217 0.9 3.5 0.00 0.00 0.00 95 1018.5
20260905123853 56 125 0.0 2.6 0.00 0.00 0.00 95 1018.4
20260905123352 56 219 0.0 2.6 0.00 0.00 0.00 96 1018.5
20260905123124 56 220 0.9 2.6 0.00 0.00 0.00 96 1018.6
20260905122325 55 279 0.9 2.6 0.00 0.00 0.00 97 1018.4
20260905121822 55 267 0.9 2.6 0.00 0.00 0.00 97 1018.5
20260905121319 55 295 0.9 3.5 0.00 0.00 0.00 98 1018.4
20260905120800 55 332 0.9 3.5 0.00 0.00 0.00 98 1018.5
20260905120234 55 311 0.9 3.5 0.00 0.00 0.00 98 1018.6
20260905115708 55 304 0.9 2.6 0.00 0.00 0.00 98 1018.4
20260905115140 55 310 0.9 1.7 0.00 0.00 0.00 98 1018.4
20260905114845 54 345 0.9 2.6 0.00 0.00 0.00 98 1018.2
20260905114109 54 343 0.9 2.6 0.00 0.00 0.00 98 1018.1
20260905113606 54 336 0.9 2.6 0.00 0.00 0.00 98 1018.3
20260905113103 54 322 0.9 3.5 0.00 0.00 0.00 98 1018.1
20260905112548 54 331 0.9 3.5 0.00 0.00 0.00 98 1018.1
20260905112045 54 0 0.0 1.7 0.00 0.00 0.00 98 1018.1
20260905111542 53 295 0.0 0.9 0.00 0.00 0.00 98 1018.0
20260905111014 53 244 0.0 1.7 0.00 0.00 0.00 98 1017.9
20260905110512 53 287 0.0 1.7 0.00 0.00 0.00 98 1017.9
20260905110007 53 264 0.0 0.9 0.00 0.00 0.00 98 1017.8
20260905105503 53 231 0.0 0.9 0.00 0.00 0.00 98 1017.6
20260905105230 53 231 0.0 1.7 0.00 0.00 0.00 98 1017.5
20260905104451 53 240 0.0 1.7 0.00 0.00 0.00 98 1017.6
20260905103949 53 303 0.0 1.7 0.00 0.00 0.00 98 1017.5
20260905103438 52 303 0.0 1.7 0.00 0.00 0.00 98 1017.3
20260905102936 52 303 0.0 1.7 0.00 0.00 0.00 98 1017.4
20260905102437 52 303 0.0 1.7 0.00 0.00 0.00 98 1017.4
20260905101939 52 299 0.0 1.7 0.00 0.00 0.00 98 1017.3
20260905101409 52 299 0.0 1.7 0.00 0.00 0.00 98 1017.3
20260905100907 52 343 0.0 0.9 0.00 0.00 0.00 98 1017.3
20260905100402 51 120 0.0 0.0 0.00 0.00 0.00 98 1017.3
20260905095859 51 120 0.0 0.0 0.00 0.00 0.00 98 1017.2
20260905095354 51 120 0.0 0.0 0.00 0.00 0.00 98 1016.9
20260905094852 51 120 0.0 0.0 0.00 0.00 0.00 98 1017.0
20260905094559 51 120 0.0 0.0 0.00 0.00 0.00 98 1017.0
20260905093801 51 120 0.0 0.0 0.00 0.00 0.00 98 1017.0
20260905093509 51 120 0.0 0.0 0.00 0.00 0.00 98 1016.9
20260905092739 51 120 0.0 0.0 0.00 0.00 0.00 98 1016.7
20260905092210 51 120 0.0 0.0 0.00 0.00 0.00 98 1016.7
20260905091645 51 120 0.0 0.9 0.00 0.00 0.00 98 1016.8
20260905091142 51 120 0.0 0.9 0.00 0.00 0.00 98 1016.6
20260905090901 51 120 0.0 0.9 0.00 0.00 0.00 98 1016.6
20260905090130 51 120 0.0 0.9 0.00 0.00 0.00 98 1016.5
20260905085623 51 177 0.0 0.9 0.00 0.00 0.00 98 1016.5
20260905085119 51 177 0.0 0.9 0.00 0.00 0.00 98 1016.4
20260905084620 51 182 0.0 0.9 0.00 0.00 0.00 98 1016.4
20260905084057 51 182 0.0 0.9 0.00 0.00 0.00 98 1016.3
20260905083554 50 182 0.0 0.9 0.00 0.00 0.00 98 1016.4
20260905083318 50 255 0.0 0.0 0.00 0.00 0.00 98 1016.3
20260905082523 50 255 0.0 0.0 0.00 0.00 0.00 98 1016.2
20260905082020 50 255 0.0 0.0 0.00 0.00 0.00 98 1016.3
20260905081516 50 255 0.0 0.0 0.00 0.00 0.00 98 1016.1
20260905081508 50 255 0.0 0.0 0.00 0.00 0.00 98 1016.1
20260905080736 49 255 0.0 0.0 0.00 0.00 0.00 97 1016.2
20260905080618 49 255 0.0 0.0 0.00 0.00 0.00 97 1016.2
20260905075440 49 255 0.0 0.0 0.00 0.00 0.00 97 1016.2
20260905074915 49 255 0.0 0.0 0.00 0.00 0.00 98 1016.1
20260905074412 49 255 0.0 0.0 0.00 0.00 0.00 97 1016.1
20260905073845 49 255 0.0 0.9 0.00 0.00 0.00 97 1016.0
20260905073343 49 255 0.0 0.9 0.00 0.00 0.00 97 1015.9
20260905072820 48 255 0.0 0.0 0.00 0.00 0.00 97 1016.0
20260905072248 48 255 0.0 0.0 0.00 0.00 0.00 97 1016.0
20260905071747 48 255 0.0 0.0 0.00 0.00 0.00 97 1016.0
20260905071224 48 255 0.0 0.0 0.00 0.00 0.00 97 1016.0
20260905070716 48 255 0.0 0.0 0.00 0.00 0.00 97 1016.0
20260905070218 48 255 0.0 0.9 0.00 0.00 0.00 97 1015.9
20260905065713 48 255 0.0 0.9 0.00 0.00 0.00 97 1016.0
20260905065212 48 255 0.0 0.0 0.00 0.00 0.00 97 1015.9
20260905064708 48 255 0.0 0.0 0.00 0.00 0.00 97 1015.9
20260905064206 48 255 0.0 0.0 0.00 0.00 0.00 97 1015.9
20260905063658 48 255 0.0 0.0 0.00 0.00 0.00 97 1015.8
20260905063200 48 255 0.0 0.0 0.00 0.00 0.00 97 1015.8
20260905062905 48 255 0.0 0.0 0.00 0.00 0.00 97 1015.7
20260905062112 48 255 0.0 0.0 0.00 0.00 0.00 97 1015.8
20260905061839 48 255 0.0 0.0 0.00 0.00 0.00 97 1015.9
20260905061041 48 255 0.0 0.0 0.00 0.00 0.00 97 1016.0
20260905060540 48 255 0.0 0.9 0.00 0.00 0.00 97 1016.1
20260905060010 48 255 0.0 0.9 0.00 0.00 0.00 96 1016.1
20260905055736 48 255 0.0 0.9 0.00 0.00 0.00 96 1016.0
20260905055209 48 255 0.0 0.9 0.00 0.00 0.00 96 1016.2
20260905054438 48 255 0.0 0.0 0.00 0.00 0.00 96 1016.2
20260905053936 48 255 0.0 0.0 0.00 0.00 0.00 96 1016.2
20260905053434 48 255 0.0 0.0 0.00 0.00 0.00 96 1015.9
20260905053203 48 255 0.0 0.9 0.00 0.00 0.00 96 1016.0
20260905052431 48 255 0.0 0.9 0.00 0.00 0.00 96 1015.9
20260905051932 48 255 0.0 0.9 0.00 0.00 0.00 96 1016.0
20260905051403 48 255 0.0 0.0 0.00 0.00 0.00 96 1015.9
20260905050852 48 255 0.0 0.0 0.00 0.00 0.00 96 1015.9
20260905050351 49 255 0.0 0.0 0.00 0.00 0.00 96 1016.0
20260905045826 49 255 0.0 0.0 0.00 0.00 0.00 96 1016.0
20260905045528 48 255 0.0 0.0 0.00 0.00 0.00 96 1016.0
20260905044726 48 255 0.0 0.0 0.00 0.00 0.00 96 1016.0
20260905044200 48 255 0.0 0.0 0.00 0.00 0.00 96 1016.2
20260905043657 48 255 0.0 0.0 0.00 0.00 0.00 95 1016.1
20260905043150 48 255 0.0 0.0 0.00 0.00 0.00 95 1016.1
20260905042644 48 255 0.0 0.0 0.00 0.00 0.00 95 1016.1
20260905042635 48 255 0.0 0.0 0.00 0.00 0.00 96 1016.2
20260905041905 49 255 0.0 0.0 0.00 0.00 0.00 95 1016.2
20260905041612 49 255 0.0 0.0 0.00 0.00 0.00 95 1016.1
20260905040546 48 255 0.0 0.0 0.00 0.00 0.00 95 1016.1
20260905040013 48 255 0.0 0.9 0.00 0.00 0.00 94 1015.9
20260905035739 49 255 0.0 0.9 0.00 0.00 0.00 95 1016.0
20260905034942 49 255 0.0 0.0 0.00 0.00 0.00 94 1016.1
20260905034415 49 255 0.0 0.0 0.00 0.00 0.00 94 1016.2
20260905033904 49 255 0.0 0.0 0.00 0.00 0.00 94 1016.1
20260905033402 49 255 0.0 0.0 0.00 0.00 0.00 94 1016.0
20260905032858 49 255 0.0 0.0 0.00 0.00 0.00 94 1015.9
20260905032345 49 255 0.0 0.0 0.00 0.00 0.00 94 1016.0
20260905031830 50 257 0.0 0.0 0.00 0.00 0.00 94 1016.1
20260905031330 50 258 0.0 0.0 0.00 0.00 0.00 94 1016.2
20260905031102 50 257 0.0 0.0 0.00 0.00 0.00 95 1016.1
20260905030331 50 258 0.0 0.0 0.00 0.00 0.00 95 1016.1
20260905025822 51 258 0.9 1.7 0.00 0.00 0.00 95 1016.2
20260905025552 51 258 0.9 1.7 0.00 0.00 0.00 95 1016.2
20260905024822 51 258 0.0 1.7 0.00 0.00 0.00 94 1016.1
20260905024318 50 258 0.0 0.0 0.00 0.00 0.00 94 1016.0
20260905023757 50 258 0.0 0.0 0.00 0.00 0.00 94 1016.2
20260905023226 51 258 0.0 0.0 0.00 0.00 0.00 93 1016.0
20260905022725 51 257 0.0 0.0 0.00 0.00 0.00 93 1016.1
20260905022222 51 257 0.0 0.0 0.00 0.00 0.00 93 1016.1
20260905021722 51 258 0.0 0.0 0.00 0.00 0.00 93 1016.1
20260905021201 51 258 0.0 0.0 0.00 0.00 0.00 92 1016.0
20260905020647 51 258 0.0 0.0 0.00 0.00 0.00 93 1016.0
20260905020143 51 253 0.0 0.0 0.00 0.00 0.00 92 1016.1
20260905015640 52 253 0.0 1.7 0.00 0.00 0.00 92 1016.1
20260905015140 52 253 0.0 1.7 0.00 0.00 0.00 92 1016.1
20260905014639 52 253 0.0 0.9 0.00 0.00 0.00 92 1016.2
20260905014342 52 253 0.0 0.0 0.00 0.00 0.00 92 1016.0
20260905013604 52 253 0.0 0.0 0.00 0.00 0.00 92 1016.1
20260905013101 52 253 0.0 0.0 0.00 0.00 0.00 92 1016.1
20260905012601 53 253 0.0 0.0 0.00 0.00 0.00 92 1016.0
20260905012059 53 253 0.0 0.9 0.00 0.00 0.00 92 1015.9
20260905011533 53 253 0.9 0.9 0.00 0.00 0.00 92 1016.0
20260905011033 53 253 0.9 1.7 0.00 0.00 0.00 92 1016.0
20260905010527 53 253 0.0 1.7 0.00 0.00 0.00 92 1016.1
20260905010026 53 253 0.0 0.0 0.00 0.00 0.00 91 1016.1
20260905005522 54 253 0.0 1.7 0.00 0.00 0.00 91 1016.0
20260905005021 54 253 0.0 1.7 0.00 0.00 0.00 91 1015.9
20260905004726 54 133 0.0 0.9 0.00 0.00 0.00 91 1015.9
20260905003946 54 133 0.9 1.7 0.00 0.00 0.00 92 1015.9
20260905003445 54 151 0.9 1.7 0.00 0.00 0.00 92 1015.7
20260905002940 54 177 0.9 2.6 0.00 0.00 0.00 92 1015.5
20260905002438 54 103 0.9 3.5 0.00 0.00 0.00 92 1015.6
20260905001933 54 187 0.9 3.5 0.00 0.00 0.00 92 1015.6
20260905001422 54 241 0.0 0.9 0.00 0.00 0.00 90 1015.5
20260905000901 54 241 0.0 0.0 0.00 0.00 0.00 90 1015.4
20260905000348 55 241 0.0 0.0 0.00 0.00 0.00 90 1015.4
20260904235851 55 241 0.0 0.0 0.00 0.00 0.00 90 1015.4
20260904235345 55 241 0.0 0.0 0.00 0.00 0.00 89 1015.4
20260904235114 55 241 0.0 0.0 0.00 0.00 0.00 89 1015.4
20260904234334 55 241 0.0 0.9 0.00 0.00 0.00 90 1015.3
20260904233808 55 241 0.0 0.9 0.00 0.00 0.00 90 1015.3
20260904233533 55 241 0.0 0.0 0.00 0.00 0.00 89 1015.3
20260904232759 55 241 0.0 0.0 0.00 0.00 0.00 88 1015.1
20260904232737 56 241 0.0 0.0 0.00 0.00 0.00 88 1015.2
20260904231958 56 241 0.0 0.0 0.00 0.00 0.00 88 1015.2
20260904231222 56 241 0.0 0.9 0.00 0.00 0.00 88 1015.1
20260904230723 56 241 0.0 0.9 0.00 0.00 0.00 89 1015.0
20260904230451 56 241 0.0 0.9 0.00 0.00 0.00 88 1015.0
20260904225653 56 241 0.0 0.9 0.00 0.00 0.00 87 1014.8
20260904225134 57 241 0.0 0.0 0.00 0.00 0.00 86 1014.9
20260904224635 57 241 0.0 0.0 0.00 0.00 0.00 86 1014.7
20260904224134 57 241 0.0 0.9 0.00 0.00 0.00 86 1014.7
20260904223634 57 241 0.0 1.7 0.00 0.00 0.00 86 1014.7
20260904223131 58 241 0.9 1.7 0.00 0.00 0.00 86 1014.5
20260904222620 58 235 0.9 1.7 0.00 0.00 0.00 85 1014.4
20260904222121 58 187 0.9 1.7 0.00 0.00 0.00 84 1014.3
20260904221553 59 182 0.0 1.7 0.00 0.00 0.00 83 1014.5
20260904221320 59 243 0.0 0.0 0.00 0.00 0.00 81 1014.4
20260904220546 59 243 0.0 0.0 0.00 0.00 0.00 81 1014.2
20260904220035 60 243 0.0 0.0 0.00 0.00 0.00 81 1014.2
20260904215508 60 243 0.0 0.0 0.00 0.00 0.00 80 1014.0
20260904214939 61 243 0.0 0.0 0.00 0.00 0.00 79 1014.2
20260904214433 61 243 0.0 0.0 0.00 0.00 0.00 77 1014.2
20260904213910 61 243 0.0 0.0 0.00 0.00 0.00 76 1014.3
20260904213608 62 243 0.0 0.0 0.00 0.00 0.00 77 1014.2
20260904212832 62 243 0.0 0.0 0.00 0.00 0.00 76 1014.3
20260904212312 63 243 0.0 0.0 0.00 0.00 0.00 74 1014.2
20260904211810 63 243 0.0 0.0 0.00 0.00 0.00 74 1014.2
20260904211308 64 243 0.0 0.0 0.00 0.00 0.00 74 1014.3
20260904210808 65 243 0.0 0.9 0.00 0.00 0.00 71 1014.1
20260904210302 65 243 0.9 1.7 0.00 0.00 0.00 72 1014.0
20260904205800 65 243 0.9 1.7 0.00 0.00 0.00 71 1014.1
20260904205231 66 243 0.9 1.7 0.00 0.00 0.00 70 1014.0
20260904204703 67 243 0.9 1.7 0.00 0.00 0.00 68 1014.0
20260904204201 67 243 0.9 1.7 0.00 0.00 0.00 64 1013.9
20260904203654 68 239 0.9 2.6 0.00 0.00 0.00 60 1013.8
20260904203152 69 226 0.9 2.6 0.00 0.00 0.00 58 1013.8
20260904202650 69 241 0.9 3.5 0.00 0.00 0.00 57 1013.8
20260904202122 70 235 0.9 3.5 0.00 0.00 0.00 55 1013.7
20260904201820 71 250 0.9 2.6 0.00 0.00 0.00 54 1013.9
20260904201048 71 238 0.9 2.6 0.00 0.00 0.00 52 1013.8
20260904200533 71 254 0.9 3.5 0.00 0.00 0.00 54 1013.6
20260904200036 71 270 0.9 3.5 0.00 0.00 0.00 55 1013.7
20260904195518 71 267 1.7 3.5 0.00 0.00 0.00 51 1013.7
20260904195248 71 231 0.9 3.5 0.00 0.00 0.00 53 1013.6
20260904194519 71 259 0.0 1.7 0.00 0.00 0.00 53 1013.6
20260904193954 71 141 0.9 3.5 0.00 0.00 0.00 53 1013.6
20260904193427 71 150 0.9 3.5 0.00 0.00 0.00 51 1013.5
20260904192915 71 182 0.9 3.5 0.00 0.00 0.00 52 1013.6
20260904192351 70 344 0.9 2.6 0.00 0.00 0.00 54 1013.5
20260904191828 70 339 0.9 2.6 0.00 0.00 0.00 54 1013.4
20260904191324 69 270 0.9 2.6 0.00 0.00 0.00 55 1013.3
20260904190826 69 115 0.9 3.5 0.00 0.00 0.00 53 1013.4
20260904190300 69 199 0.9 3.5 0.00 0.00 0.00 53 1013.3
20260904185734 69 145 0.0 3.5 0.00 0.00 0.00 56 1013.1
20260904185233 69 158 0.0 0.0 0.00 0.00 0.00 56 1013.5
20260904184733 69 43 0.0 0.0 0.00 0.00 0.00 57 1013.4
20260904184232 68 43 0.0 0.0 0.00 0.00 0.00 56 1013.4
20260904183731 68 40 0.0 0.0 0.00 0.00 0.00 57 1013.4
20260904183228 68 210 0.0 1.7 0.00 0.00 0.00 56 1013.3